Weather History for Key West NAF, FL

Change the Weather History Date:

Friday, October 26, 2012

  Actual Average Record
Temperature  
Mean Temperature 80 °F -  
Max Temperature 82 °F 82 °F 88 °F (1981)
Min Temperature 78 °F 73 °F 66 °F (1990)
Cooling Degree Days 15    
Growing Degree Days 30 (Base 50)    
Moisture  
Dew Point 69 °F    
Average Humidity 69    
Maximum Humidity 74    
Minimum Humidity 61    
Precipitation  
Precipitation 0.00 in - - ()
Sea Level Pressure  
Sea Level Pressure 29.65 in    
Wind  
Wind Speed 20 mph (NNW)    
Max Wind Speed 23 mph    
Max Gust Speed 33 mph    
Visibility 10 miles    
Events      
Averages and records for this station are not official NWS values.
T = Trace of Precipitation, MM = Missing Value Source: NWS Daily Summary

Daily Weather History Graph

Daily Weather History Graph

Search for Another Location

Airport:

Trip Planner

Search our weather history database for the weather conditions in past years. The results will help you decide how hot, cold, wet, or windy it might be!

Date:

Astronomy

Oct. 26, 2012 Rise Set
Actual Time 7:30 AM EDT 6:50 PM EDT
Civil Twilight 7:07 AM EDT 7:13 PM EDT
Nautical Twilight 6:40 AM EDT 7:40 PM EDT
Astronomical Twilight 6:13 AM EDT 8:07 PM EDT
Moon 4:52 PM EDT (10/26) 4:41 AM EDT (10/26)
Length of Visible Light 12h 06m
Length of Day
11h 20m
Waxing Gibbous, 91% of the Moon is Illuminated
Oct 26
Waxing Gibbous
Oct 29
Full
Nov 6
Last Quarter
Nov 13
New
Nov 20
First Quarter

Hourly Weather History & Observations

Time (EDT) Temp. Heat Index Dew Point Humidity Pressure Visibility Wind Dir Wind Speed Gust Speed Precip Events Conditions
12:53 AM 80.1 °F 82.3 °F 66.9 °F 64% 29.67 in 10.0 mi North 20.7 mph 33.4 mph N/A   Partly Cloudy
1:53 AM 79.0 °F - 69.1 °F 72% 29.66 in 10.0 mi North 23.0 mph 33.4 mph N/A   Clear
2:53 AM 79.0 °F - 69.1 °F 72% 29.64 in 10.0 mi NNW 23.0 mph 33.4 mph N/A   Partly Cloudy
3:53 AM 79.0 °F - 69.1 °F 72% 29.63 in 10.0 mi North 20.7 mph 31.1 mph N/A   Scattered Clouds
4:53 AM 79.0 °F - 70.0 °F 74% 29.62 in 10.0 mi NNW 21.9 mph 32.2 mph N/A   Overcast
5:53 AM 79.0 °F - 66.9 °F 66% 29.62 in 10.0 mi North 19.6 mph 25.3 mph N/A   Mostly Cloudy
5:56 AM 80.6 °F 82.7 °F 66.2 °F 61% 29.62 in 10.0 mi North 18.4 mph 25.3 mph N/A   Overcast
6:53 AM 80.1 °F 82.1 °F 66.0 °F 62% 29.62 in 10.0 mi North 18.4 mph 25.3 mph N/A   Overcast
7:53 AM 79.0 °F - 69.1 °F 72% 29.64 in 10.0 mi NNW 20.7 mph 27.6 mph N/A   Overcast
8:53 AM 79.0 °F - 68.0 °F 69% 29.66 in 10.0 mi North 19.6 mph 27.6 mph N/A   Overcast
9:53 AM 80.1 °F 82.7 °F 68.0 °F 67% 29.68 in 10.0 mi North 23.0 mph 31.1 mph N/A   Overcast
10:53 AM 81.0 °F 83.3 °F 66.9 °F 62% 29.68 in 10.0 mi North 20.7 mph 26.5 mph N/A   Overcast
11:53 AM 81.0 °F 83.8 °F 68.0 °F 65% 29.68 in 10.0 mi NNW 18.4 mph 27.6 mph N/A   Overcast
12:53 PM 81.0 °F 84.4 °F 70.0 °F 69% 29.67 in 10.0 mi NNW 21.9 mph 28.8 mph N/A   Overcast
1:53 PM 82.0 °F 85.9 °F 70.0 °F 67% 29.65 in 10.0 mi NNW 21.9 mph 28.8 mph N/A   Mostly Cloudy
2:53 PM 82.0 °F 85.5 °F 69.1 °F 65% 29.63 in 10.0 mi NNW 16.1 mph 29.9 mph N/A   Mostly Cloudy
3:53 PM 81.0 °F 84.4 °F 70.0 °F 69% 29.62 in 10.0 mi NW 18.4 mph 26.5 mph N/A   Mostly Cloudy
4:53 PM 82.0 °F 85.5 °F 69.1 °F 65% 29.62 in 10.0 mi NW 20.7 mph 31.1 mph N/A   Mostly Cloudy
5:53 PM 81.0 °F 84.1 °F 69.1 °F 67% 29.62 in 10.0 mi NW 18.4 mph 28.8 mph N/A   Mostly Cloudy
6:53 PM 80.1 °F 83.2 °F 70.0 °F 71% 29.63 in 10.0 mi NW 16.1 mph 24.2 mph N/A   Mostly Cloudy
7:53 PM 80.1 °F 82.9 °F 69.1 °F 69% 29.64 in 10.0 mi NW 18.4 mph 28.8 mph N/A   Mostly Cloudy
8:53 PM 79.0 °F - 70.0 °F 74% 29.66 in 10.0 mi NW 16.1 mph 28.8 mph N/A   Mostly Cloudy
9:53 PM 80.1 °F 83.2 °F 70.0 °F 71% 29.68 in 10.0 mi NW 21.9 mph 29.9 mph N/A   Mostly Cloudy
10:26 PM 78.8 °F - 69.8 °F 74% 29.68 in 10.0 mi NW 20.7 mph 28.8 mph N/A   Scattered Clouds
10:53 PM 79.0 °F - 70.0 °F 74% 29.68 in 10.0 mi NW 20.7 mph 28.8 mph N/A   Partly Cloudy
11:53 PM 80.1 °F 83.2 °F 70.0 °F 71% 29.68 in 10.0 mi NW 16.1 mph 26.5 mph N/A   Scattered Clouds